Time,TemperatureF,DewpointF,PressureIn,WindDirection,WindDirectionDegrees,WindSpeedMPH,WindSpeedGustMPH,Humidity,HourlyPrecipIn,Conditions,Clouds,dailyrainin,SoftwareType,DateUTC
2013-05-27 00:00:00,77.5,69.7,29.97,SE,126,3.0,3.0,77,0.00,,,0.15,Wunderground v.1.15,2013-05-27 05:00:00,
2013-05-27 00:06:00,77.4,69.6,29.97,SE,143,4.0,6.0,77,0.00,,,0.00,Wunderground v.1.15,2013-05-27 05:06:00,
2013-05-27 00:11:00,77.3,69.5,29.97,South,175,4.0,5.0,77,0.00,,,0.00,Wunderground v.1.15,2013-05-27 05:11:00,
2013-05-27 00:17:00,77.1,69.3,29.97,SSW,198,4.0,6.0,77,0.00,,,0.00,Wunderground v.1.15,2013-05-27 05:17:00,
2013-05-27 00:23:00,77.0,69.2,29.97,SSE,166,4.0,11.0,77,0.00,,,0.00,Wunderground v.1.15,2013-05-27 05:23:00,
2013-05-27 00:28:00,76.9,69.1,29.97,South,184,4.0,11.0,77,0.00,,,0.00,Wunderground v.1.15,2013-05-27 05:28:00,
2013-05-27 00:34:00,77.0,69.2,29.97,South,181,4.0,5.0,77,0.00,,,0.00,Wunderground v.1.15,2013-05-27 05:34:00,
2013-05-27 00:40:00,76.9,69.1,29.97,South,179,4.0,5.0,77,0.00,,,0.00,Wunderground v.1.15,2013-05-27 05:40:00,
2013-05-27 00:45:00,76.7,69.3,29.96,SE,138,4.0,8.0,78,0.00,,,0.00,Wunderground v.1.15,2013-05-27 05:45:00,
2013-05-27 00:51:00,76.7,69.3,29.96,SSW,211,5.0,5.0,78,0.00,,,0.00,Wunderground v.1.15,2013-05-27 05:51:00,
2013-05-27 00:57:00,76.7,69.3,29.96,SSE,165,4.0,11.0,78,0.00,,,0.00,Wunderground v.1.15,2013-05-27 05:57:00,
2013-05-27 01:02:00,76.6,69.2,29.95,SSW,205,5.0,5.0,78,0.00,,,0.00,Wunderground v.1.15,2013-05-27 06:02:00,
2013-05-27 01:08:00,76.4,69.0,29.95,South,170,5.0,8.0,78,0.00,,,0.00,Wunderground v.1.15,2013-05-27 06:08:00,
2013-05-27 01:14:00,76.2,69.2,29.95,SSE,165,5.0,7.0,79,0.00,,,0.00,Wunderground v.1.15,2013-05-27 06:14:00,
2013-05-27 01:20:00,76.2,69.2,29.95,SSE,167,5.0,5.0,79,0.00,,,0.00,Wunderground v.1.15,2013-05-27 06:20:00,
2013-05-27 01:26:00,76.1,69.1,29.96,South,173,4.0,7.0,79,0.00,,,0.00,Wunderground v.1.15,2013-05-27 06:26:00,
2013-05-27 01:31:00,76.0,69.0,29.96,South,184,5.0,15.0,79,0.00,,,0.00,Wunderground v.1.15,2013-05-27 06:31:00,
2013-05-27 01:37:00,75.9,69.3,29.96,SE,139,5.0,15.0,80,0.00,,,0.00,Wunderground v.1.15,2013-05-27 06:37:00,
2013-05-27 01:42:00,75.9,69.3,29.95,SSE,167,5.0,6.0,80,0.00,,,0.00,Wunderground v.1.15,2013-05-27 06:42:00,
2013-05-27 01:48:00,75.8,69.2,29.95,SE,137,5.0,6.0,80,0.00,,,0.00,Wunderground v.1.15,2013-05-27 06:48:00,
2013-05-27 01:54:00,75.7,69.1,29.95,SSE,148,5.0,8.0,80,0.00,,,0.00,Wunderground v.1.15,2013-05-27 06:54:00,
2013-05-27 02:00:00,75.4,69.2,29.95,SE,129,4.0,6.0,81,0.00,,,0.00,Wunderground v.1.15,2013-05-27 07:00:00,
2013-05-27 02:06:00,75.3,69.1,29.95,South,178,5.0,8.0,81,0.00,,,0.00,Wunderground v.1.15,2013-05-27 07:06:00,
2013-05-27 02:11:00,75.2,69.0,29.95,SSE,164,5.0,7.0,81,0.00,,,0.00,Wunderground v.1.15,2013-05-27 07:11:00,
2013-05-27 02:16:00,75.1,68.9,29.95,South,190,5.0,7.0,81,0.00,,,0.00,Wunderground v.1.15,2013-05-27 07:16:00,
2013-05-27 02:22:00,74.9,68.7,29.95,SSW,199,5.0,7.0,81,0.00,,,0.00,Wunderground v.1.15,2013-05-27 07:22:00,
2013-05-27 02:28:00,74.8,68.9,29.95,SSW,194,5.0,7.0,82,0.00,,,0.00,Wunderground v.1.15,2013-05-27 07:28:00,
2013-05-27 02:34:00,74.6,68.7,29.94,South,177,3.0,8.0,82,0.00,,,0.00,Wunderground v.1.15,2013-05-27 07:34:00,
2013-05-27 02:40:00,74.6,68.7,29.94,South,180,4.0,5.0,82,0.00,,,0.00,Wunderground v.1.15,2013-05-27 07:40:00,
2013-05-27 02:45:00,74.5,69.0,29.94,SSE,160,5.0,10.0,82,0.00,,,0.00,weatherlink.com 1.10,2013-05-27 07:45:00,
2013-05-27 02:50:00,74.4,68.5,29.94,South,171,4.0,4.0,82,0.00,,,0.00,Wunderground v.1.15,2013-05-27 07:50:00,
2013-05-27 02:56:00,74.4,68.5,29.94,SSE,157,4.0,10.0,82,0.00,,,0.00,Wunderground v.1.15,2013-05-27 07:56:00,
2013-05-27 03:01:00,74.3,68.4,29.93,SSE,165,4.0,7.0,82,0.00,,,0.00,Wunderground v.1.15,2013-05-27 08:01:00,
2013-05-27 03:07:00,74.5,68.3,29.93,South,187,5.0,11.0,81,0.00,,,0.00,Wunderground v.1.15,2013-05-27 08:07:00,
2013-05-27 03:12:00,74.6,68.4,29.93,South,183,6.0,8.0,81,0.00,,,0.00,Wunderground v.1.15,2013-05-27 08:12:00,
2013-05-27 03:17:00,74.6,68.4,29.93,SSW,199,5.0,8.0,81,0.00,,,0.00,Wunderground v.1.15,2013-05-27 08:17:00,
2013-05-27 03:22:00,74.5,68.3,29.93,South,190,4.0,7.0,81,0.00,,,0.00,Wunderground v.1.15,2013-05-27 08:22:00,
2013-05-27 03:28:00,74.3,68.1,29.93,SSE,150,4.0,7.0,81,0.00,,,0.00,Wunderground v.1.15,2013-05-27 08:28:00,
2013-05-27 03:34:00,74.3,68.1,29.93,South,171,4.0,7.0,81,0.00,,,0.00,Wunderground v.1.15,2013-05-27 08:34:00,
2013-05-27 03:39:00,74.2,68.0,29.93,South,175,5.0,7.0,81,0.00,,,0.00,Wunderground v.1.15,2013-05-27 08:39:00,
2013-05-27 03:45:00,74.0,68.2,29.93,SSW,198,4.0,6.0,82,0.00,,,0.00,Wunderground v.1.15,2013-05-27 08:45:00,
2013-05-27 03:51:00,73.9,68.1,29.92,SSE,168,4.0,5.0,82,0.00,,,0.00,Wunderground v.1.15,2013-05-27 08:51:00,
2013-05-27 03:56:00,73.7,67.9,29.92,SSE,165,4.0,10.0,82,0.00,,,0.00,Wunderground v.1.15,2013-05-27 08:56:00,
2013-05-27 04:02:00,73.7,68.0,29.92,South,178,6.0,11.0,82,0.00,,,0.00,weatherlink.com 1.10,2013-05-27 09:02:00,
2013-05-27 04:07:00,73.6,67.8,29.92,SSW,193,5.0,11.0,82,0.00,,,0.00,Wunderground v.1.15,2013-05-27 09:07:00,
2013-05-27 04:12:00,73.6,67.8,29.92,South,180,5.0,5.0,82,0.00,,,0.00,Wunderground v.1.15,2013-05-27 09:12:00,
2013-05-27 04:18:00,73.4,67.9,29.92,SSW,208,5.0,10.0,83,0.00,,,0.00,Wunderground v.1.15,2013-05-27 09:18:00,
2013-05-27 04:24:00,73.3,67.8,29.91,South,179,5.0,7.0,83,0.00,,,0.00,Wunderground v.1.15,2013-05-27 09:24:00,
2013-05-27 04:30:00,73.2,67.7,29.91,South,169,4.0,4.0,83,0.00,,,0.00,Wunderground v.1.15,2013-05-27 09:30:00,
2013-05-27 04:36:00,73.1,68.0,29.91,SSE,150,4.0,8.0,84,0.00,,,0.00,Wunderground v.1.15,2013-05-27 09:36:00,
2013-05-27 04:42:00,72.9,67.8,29.91,South,186,5.0,5.0,84,0.00,,,0.00,Wunderground v.1.15,2013-05-27 09:42:00,
2013-05-27 04:48:00,72.6,67.5,29.91,SSW,200,4.0,5.0,84,0.00,,,0.00,Wunderground v.1.15,2013-05-27 09:48:00,
2013-05-27 04:54:00,72.4,67.6,29.91,SSE,168,5.0,7.0,85,0.00,,,0.00,Wunderground v.1.15,2013-05-27 09:54:00,
2013-05-27 05:00:00,72.2,67.4,29.91,South,184,5.0,8.0,85,0.00,,,0.00,Wunderground v.1.15,2013-05-27 10:00:00,
2013-05-27 05:06:00,72.2,67.4,29.91,SSW,196,4.0,9.0,85,0.00,,,0.00,Wunderground v.1.15,2013-05-27 10:06:00,
2013-05-27 05:12:00,72.1,67.3,29.91,SSE,149,5.0,5.0,85,0.00,,,0.00,Wunderground v.1.15,2013-05-27 10:12:00,
2013-05-27 05:18:00,72.0,67.6,29.91,SSE,150,5.0,7.0,86,0.00,,,0.00,Wunderground v.1.15,2013-05-27 10:18:00,
2013-05-27 05:24:00,71.9,67.5,29.91,SSW,192,4.0,6.0,86,0.00,,,0.00,Wunderground v.1.15,2013-05-27 10:24:00,
2013-05-27 05:29:00,71.9,67.8,29.92,SSE,158,4.0,8.0,87,0.00,,,0.00,Wunderground v.1.15,2013-05-27 10:29:00,
2013-05-27 05:35:00,72.0,67.9,29.91,South,178,4.0,5.0,87,0.00,,,0.00,Wunderground v.1.15,2013-05-27 10:35:00,
2013-05-27 05:40:00,72.1,67.7,29.92,South,182,4.0,4.0,86,0.00,,,0.00,Wunderground v.1.15,2013-05-27 10:40:00,
2013-05-27 05:46:00,72.1,67.7,29.92,South,184,4.0,6.0,86,0.00,,,0.00,Wunderground v.1.15,2013-05-27 10:46:00,
2013-05-27 05:52:00,72.2,67.8,29.93,SSE,167,4.0,6.0,86,0.00,,,0.00,Wunderground v.1.15,2013-05-27 10:52:00,
2013-05-27 05:58:00,72.2,67.8,29.93,SSW,192,5.0,13.0,86,0.00,,,0.00,Wunderground v.1.15,2013-05-27 10:58:00,
2013-05-27 06:03:00,72.3,67.9,29.93,SW,232,5.0,7.0,86,0.00,,,0.00,Wunderground v.1.15,2013-05-27 11:03:00,
2013-05-27 06:08:00,72.4,68.0,29.93,SSE,167,5.0,8.0,86,0.00,,,0.00,Wunderground v.1.15,2013-05-27 11:08:00,
2013-05-27 06:13:00,72.4,68.0,29.93,SSE,164,5.0,9.0,86,0.00,,,0.00,Wunderground v.1.15,2013-05-27 11:13:00,
2013-05-27 06:18:00,72.4,68.0,29.93,SSE,153,6.0,9.0,86,0.00,,,0.00,Wunderground v.1.15,2013-05-27 11:18:00,
2013-05-27 06:23:00,72.4,68.0,29.93,SSE,149,6.0,7.0,86,0.00,,,0.00,Wunderground v.1.15,2013-05-27 11:23:00,
2013-05-27 06:29:00,72.3,67.9,29.93,ESE,120,5.0,8.0,86,0.00,,,0.00,Wunderground v.1.15,2013-05-27 11:29:00,
2013-05-27 06:35:00,72.3,67.9,29.93,SE,128,5.0,11.0,86,0.00,,,0.00,Wunderground v.1.15,2013-05-27 11:35:00,
2013-05-27 06:41:00,72.2,67.8,29.94,South,186,5.0,5.0,86,0.00,,,0.00,Wunderground v.1.15,2013-05-27 11:41:00,
2013-05-27 06:47:00,72.2,67.8,29.94,SSW,196,4.0,7.0,86,0.00,,,0.00,Wunderground v.1.15,2013-05-27 11:47:00,
2013-05-27 06:53:00,72.1,67.7,29.94,SE,141,4.0,6.0,86,0.00,,,0.00,Wunderground v.1.15,2013-05-27 11:53:00,
2013-05-27 06:59:00,72.1,68.0,29.95,South,171,3.0,10.0,87,0.00,,,0.00,Wunderground v.1.15,2013-05-27 11:59:00,
2013-05-27 07:05:00,72.0,67.9,29.95,South,173,4.0,6.0,87,0.00,,,0.00,Wunderground v.1.15,2013-05-27 12:05:00,
2013-05-27 07:10:00,72.0,67.9,29.95,South,188,4.0,6.0,87,0.00,,,0.00,Wunderground v.1.15,2013-05-27 12:10:00,
2013-05-27 07:16:00,72.1,68.0,29.95,SSE,162,4.0,10.0,87,0.00,,,0.00,Wunderground v.1.15,2013-05-27 12:16:00,
2013-05-27 07:22:00,72.2,68.1,29.95,SSE,157,5.0,10.0,87,0.00,,,0.00,Wunderground v.1.15,2013-05-27 12:22:00,
2013-05-27 07:28:00,72.3,68.2,29.95,SSE,149,4.0,10.0,87,0.00,,,0.00,Wunderground v.1.15,2013-05-27 12:28:00,
2013-05-27 07:33:00,72.3,68.2,29.95,South,186,4.0,10.0,87,0.00,,,0.00,Wunderground v.1.15,2013-05-27 12:33:00,
2013-05-27 07:39:00,72.4,68.3,29.96,SSW,200,5.0,10.0,87,0.00,,,0.00,Wunderground v.1.15,2013-05-27 12:39:00,
2013-05-27 07:45:00,72.5,68.4,29.96,South,175,4.0,10.0,87,0.00,,,0.00,Wunderground v.1.15,2013-05-27 12:45:00,
2013-05-27 07:50:00,72.7,68.3,29.95,South,178,4.0,10.0,86,0.00,,,0.00,Wunderground v.1.15,2013-05-27 12:50:00,
2013-05-27 07:56:00,73.0,68.6,29.95,SSW,192,5.0,10.0,86,0.00,,,0.00,Wunderground v.1.15,2013-05-27 12:56:00,
2013-05-27 08:01:00,73.2,69.0,29.96,SSW,192,4.0,12.0,86,0.00,,,0.00,weatherlink.com 1.10,2013-05-27 13:01:00,
2013-05-27 08:07:00,73.3,68.5,29.96,SSW,192,5.0,6.0,85,0.00,,,0.00,Wunderground v.1.15,2013-05-27 13:07:00,
2013-05-27 08:13:00,73.3,68.5,29.95,SSW,198,5.0,7.0,85,0.00,,,0.00,Wunderground v.1.15,2013-05-27 13:13:00,
2013-05-27 08:18:00,73.4,68.6,29.96,South,181,5.0,9.0,85,0.00,,,0.00,Wunderground v.1.15,2013-05-27 13:18:00,
2013-05-27 08:24:00,73.5,68.4,29.95,South,169,5.0,8.0,84,0.00,,,0.00,Wunderground v.1.15,2013-05-27 13:24:00,
2013-05-27 08:30:00,73.7,68.2,29.95,South,173,6.0,6.0,83,0.00,,,0.00,Wunderground v.1.15,2013-05-27 13:30:00,
2013-05-27 08:35:00,73.8,68.7,29.95,WSW,242,6.0,7.0,84,0.00,,,0.00,Wunderground v.1.15,2013-05-27 13:35:00,
2013-05-27 08:41:00,73.8,68.3,29.96,South,171,6.0,10.0,83,0.00,,,0.00,Wunderground v.1.15,2013-05-27 13:41:00,
2013-05-27 08:47:00,73.8,68.0,29.96,South,175,5.0,13.0,82,0.00,,,0.00,Wunderground v.1.15,2013-05-27 13:47:00,
2013-05-27 08:52:00,73.9,68.4,29.96,SSE,167,5.0,5.0,83,0.00,,,0.00,Wunderground v.1.15,2013-05-27 13:52:00,
2013-05-27 08:58:00,74.2,68.7,29.95,SSE,159,5.0,9.0,83,0.00,,,0.00,Wunderground v.1.15,2013-05-27 13:58:00,
2013-05-27 09:04:00,74.7,68.8,29.95,SSE,167,5.0,6.0,82,0.00,,,0.00,Wunderground v.1.15,2013-05-27 14:04:00,
2013-05-27 09:09:00,74.9,68.7,29.96,SE,141,5.0,11.0,81,0.00,,,0.00,Wunderground v.1.15,2013-05-27 14:09:00,
2013-05-27 09:14:00,74.9,68.3,29.95,SSE,163,5.0,6.0,80,0.00,,,0.00,Wunderground v.1.15,2013-05-27 14:14:00,
2013-05-27 09:21:00,74.9,68.7,29.96,South,183,5.0,5.0,81,0.00,,,0.00,Wunderground v.1.15,2013-05-27 14:21:00,
2013-05-27 09:27:00,75.1,68.5,29.96,SSE,167,5.0,8.0,80,0.00,,,0.00,Wunderground v.1.15,2013-05-27 14:27:00,
2013-05-27 09:32:00,75.2,69.0,29.96,SSE,167,2.0,12.0,80,0.00,,,0.00,weatherlink.com 1.10,2013-05-27 14:32:00,
2013-05-27 09:39:00,75.5,68.9,29.96,South,174,5.0,7.0,80,0.00,,,0.00,Wunderground v.1.15,2013-05-27 14:39:00,
2013-05-27 09:45:00,76.2,68.8,29.96,NNE,12,5.0,7.0,78,0.00,,,0.00,Wunderground v.1.15,2013-05-27 14:45:00,
2013-05-27 09:50:00,76.5,69.1,29.96,SSE,148,5.0,5.0,78,0.00,,,0.00,Wunderground v.1.15,2013-05-27 14:50:00,
2013-05-27 09:55:00,76.5,68.7,29.96,SSW,200,5.0,7.0,77,0.00,,,0.00,Wunderground v.1.15,2013-05-27 14:55:00,
2013-05-27 10:00:00,76.6,69.2,29.95,SSE,159,5.0,5.0,78,0.00,,,0.00,Wunderground v.1.15,2013-05-27 15:00:00,
2013-05-27 10:06:00,76.6,68.8,29.95,South,189,5.0,9.0,77,0.00,,,0.00,Wunderground v.1.15,2013-05-27 15:06:00,
2013-05-27 10:11:00,76.6,68.8,29.96,SSW,202,5.0,5.0,77,0.00,,,0.00,Wunderground v.1.15,2013-05-27 15:11:00,
2013-05-27 10:17:00,76.6,69.2,29.96,South,181,5.0,7.0,78,0.00,,,0.00,Wunderground v.1.15,2013-05-27 15:17:00,
2013-05-27 10:23:00,76.7,68.9,29.95,South,174,5.0,6.0,77,0.00,,,0.00,Wunderground v.1.15,2013-05-27 15:23:00,
2013-05-27 10:29:00,77.5,69.3,29.95,South,182,4.0,10.0,76,0.00,,,0.00,Wunderground v.1.15,2013-05-27 15:29:00,
2013-05-27 10:35:00,78.4,69.0,29.96,South,182,6.0,14.0,73,0.00,,,0.00,weatherlink.com 1.10,2013-05-27 15:35:00,
2013-05-27 10:41:00,78.5,69.5,29.95,SSE,163,5.0,6.0,74,0.00,,,0.00,Wunderground v.1.15,2013-05-27 15:41:00,
2013-05-27 10:47:00,78.8,68.6,29.95,SSW,194,5.0,8.0,71,0.00,,,0.00,Wunderground v.1.15,2013-05-27 15:47:00,
2013-05-27 10:53:00,78.5,68.7,29.95,South,186,5.0,5.0,72,0.00,,,0.00,Wunderground v.1.15,2013-05-27 15:53:00,
2013-05-27 10:58:00,78.3,68.9,29.95,South,181,5.0,11.0,73,0.00,,,0.00,Wunderground v.1.15,2013-05-27 15:58:00,
2013-05-27 11:03:00,79.0,69.0,29.95,SSW,200,4.0,11.0,72,0.00,,,0.00,weatherlink.com 1.10,2013-05-27 16:03:00,
2013-05-27 11:08:00,79.8,69.6,29.95,SW,223,5.0,8.0,71,0.00,,,0.00,Wunderground v.1.15,2013-05-27 16:08:00,
2013-05-27 11:13:00,80.8,69.7,29.95,South,171,5.0,7.0,69,0.00,,,0.00,Wunderground v.1.15,2013-05-27 16:13:00,
2013-05-27 11:19:00,80.9,69.3,29.95,South,183,5.0,7.0,68,0.00,,,0.00,Wunderground v.1.15,2013-05-27 16:19:00,
2013-05-27 11:24:00,80.3,69.2,29.95,NNW,347,5.0,6.0,69,0.00,,,0.00,Wunderground v.1.15,2013-05-27 16:24:00,
2013-05-27 11:29:00,79.6,69.0,29.95,SSE,166,4.0,10.0,70,0.00,,,0.00,Wunderground v.1.15,2013-05-27 16:29:00,
2013-05-27 11:34:00,79.5,68.9,29.95,South,175,4.0,7.0,70,0.00,,,0.00,Wunderground v.1.15,2013-05-27 16:34:00,
2013-05-27 11:40:00,79.4,69.6,29.95,SSE,147,4.0,4.0,72,0.00,,,0.00,Wunderground v.1.15,2013-05-27 16:40:00,
2013-05-27 11:46:00,80.9,70.2,29.94,SSE,161,3.0,6.0,70,0.00,,,0.00,Wunderground v.1.15,2013-05-27 16:46:00,
2013-05-27 11:51:00,81.5,69.5,29.94,South,169,4.0,9.0,67,0.00,,,0.00,Wunderground v.1.15,2013-05-27 16:51:00,
2013-05-27 11:57:00,81.8,69.3,29.94,SSE,165,5.0,11.0,66,0.00,,,0.00,Wunderground v.1.15,2013-05-27 16:57:00,
2013-05-27 12:03:00,82.4,69.0,29.94,SSW,200,5.0,13.0,65,0.00,,,0.00,weatherlink.com 1.10,2013-05-27 17:03:00,
2013-05-27 12:08:00,82.1,69.2,29.94,South,190,5.0,7.0,65,0.00,,,0.00,Wunderground v.1.15,2013-05-27 17:08:00,
2013-05-27 12:13:00,82.3,69.8,29.94,South,173,4.0,10.0,66,0.00,,,0.00,Wunderground v.1.15,2013-05-27 17:13:00,
2013-05-27 12:19:00,83.4,69.5,29.94,SSE,165,5.0,10.0,63,0.00,,,0.00,Wunderground v.1.15,2013-05-27 17:19:00,
2013-05-27 12:25:00,82.6,68.7,29.94,South,174,5.0,7.0,63,0.00,,,0.00,Wunderground v.1.15,2013-05-27 17:25:00,
2013-05-27 12:31:00,81.8,69.3,29.94,SSW,200,5.0,6.0,66,0.00,,,0.00,Wunderground v.1.15,2013-05-27 17:31:00,
2013-05-27 12:37:00,82.5,68.6,29.94,SSE,159,5.0,8.0,63,0.00,,,0.00,Wunderground v.1.15,2013-05-27 17:37:00,
2013-05-27 12:43:00,82.3,69.4,29.93,South,185,6.0,7.0,65,0.00,,,0.00,Wunderground v.1.15,2013-05-27 17:43:00,
2013-05-27 12:49:00,82.0,69.5,29.93,South,181,5.0,7.0,66,0.00,,,0.00,Wunderground v.1.15,2013-05-27 17:49:00,
2013-05-27 12:55:00,81.8,69.3,29.93,SSW,194,4.0,7.0,66,0.00,,,0.00,Wunderground v.1.15,2013-05-27 17:55:00,
2013-05-27 13:00:00,81.8,69.3,29.93,South,185,5.0,6.0,66,0.00,,,0.00,Wunderground v.1.15,2013-05-27 18:00:00,
2013-05-27 13:06:00,81.5,69.5,29.93,SSW,195,5.0,6.0,67,0.00,,,0.00,Wunderground v.1.15,2013-05-27 18:06:00,
2013-05-27 13:12:00,81.6,70.0,29.92,SSW,192,4.0,7.0,68,0.00,,,0.00,Wunderground v.1.15,2013-05-27 18:12:00,
2013-05-27 13:18:00,82.4,72.0,29.92,South,188,4.0,12.0,70,0.00,,,0.00,weatherlink.com 1.10,2013-05-27 18:18:00,
2013-05-27 13:23:00,83.3,72.1,29.92,South,171,3.0,5.0,69,0.00,,,0.00,Wunderground v.1.15,2013-05-27 18:23:00,
2013-05-27 13:29:00,83.6,70.6,29.92,SSE,161,3.0,5.0,65,0.00,,,0.00,Wunderground v.1.15,2013-05-27 18:29:00,
2013-05-27 13:35:00,83.3,70.8,29.92,South,174,3.0,5.0,66,0.00,,,0.00,Wunderground v.1.15,2013-05-27 18:35:00,
2013-05-27 13:40:00,82.7,70.2,29.92,South,169,3.0,5.0,66,0.00,,,0.00,Wunderground v.1.15,2013-05-27 18:40:00,
2013-05-27 13:45:00,82.9,70.8,29.92,SSW,192,4.0,5.0,67,0.00,,,0.00,Wunderground v.1.15,2013-05-27 18:45:00,
2013-05-27 13:51:00,83.3,70.8,29.91,SSW,202,4.0,7.0,66,0.00,,,0.00,Wunderground v.1.15,2013-05-27 18:51:00,
2013-05-27 13:56:00,84.0,71.0,29.91,SSE,167,5.0,11.0,65,0.00,,,0.00,Wunderground v.1.15,2013-05-27 18:56:00,
2013-05-27 14:01:00,84.4,70.9,29.91,South,181,4.0,9.0,64,0.00,,,0.00,Wunderground v.1.15,2013-05-27 19:01:00,
2013-05-27 14:07:00,84.4,70.0,29.91,South,173,4.0,9.0,62,0.00,,,0.00,Wunderground v.1.15,2013-05-27 19:07:00,
2013-05-27 14:12:00,83.6,70.1,29.91,SSW,207,4.0,4.0,64,0.00,,,0.00,Wunderground v.1.15,2013-05-27 19:12:00,
2013-05-27 14:18:00,83.9,70.9,29.90,South,180,4.0,11.0,65,0.00,,,0.00,Wunderground v.1.15,2013-05-27 19:18:00,
2013-05-27 14:24:00,84.1,70.1,29.90,SSE,161,4.0,6.0,63,0.00,,,0.00,Wunderground v.1.15,2013-05-27 19:24:00,
2013-05-27 14:30:00,83.8,69.4,29.90,WSW,250,4.0,4.0,62,0.00,,,0.00,Wunderground v.1.15,2013-05-27 19:30:00,
2013-05-27 14:35:00,85.0,70.5,29.90,WSW,238,4.0,5.0,62,0.00,,,0.00,Wunderground v.1.15,2013-05-27 19:35:00,
2013-05-27 14:41:00,85.6,70.1,29.90,SSW,206,4.0,5.0,60,0.00,,,0.00,Wunderground v.1.15,2013-05-27 19:41:00,
2013-05-27 14:47:00,84.6,69.2,29.89,South,184,5.0,10.0,60,0.00,,,0.00,Wunderground v.1.15,2013-05-27 19:47:00,
2013-05-27 14:52:00,84.7,70.2,29.89,SE,143,5.0,8.0,62,0.00,,,0.00,Wunderground v.1.15,2013-05-27 19:52:00,
2013-05-27 14:57:00,84.8,68.9,29.89,SSE,161,5.0,11.0,59,0.00,,,0.00,Wunderground v.1.15,2013-05-27 19:57:00,
2013-05-27 15:02:00,84.1,69.2,29.89,SSW,209,5.0,5.0,61,0.00,,,0.00,Wunderground v.1.15,2013-05-27 20:02:00,
2013-05-27 15:07:00,83.7,69.8,29.89,SW,227,5.0,7.0,63,0.00,,,0.00,Wunderground v.1.15,2013-05-27 20:07:00,
2013-05-27 15:13:00,83.7,69.3,29.89,SSW,208,5.0,7.0,62,0.00,,,0.00,Wunderground v.1.15,2013-05-27 20:13:00,
2013-05-27 15:19:00,83.5,69.6,29.89,SE,140,4.0,7.0,63,0.00,,,0.00,Wunderground v.1.15,2013-05-27 20:19:00,
2013-05-27 15:25:00,83.4,69.0,29.89,SSE,168,4.0,8.0,62,0.00,,,0.00,Wunderground v.1.15,2013-05-27 20:25:00,
2013-05-27 15:31:00,83.7,68.8,29.88,SSE,149,5.0,7.0,61,0.00,,,0.00,Wunderground v.1.15,2013-05-27 20:31:00,
2013-05-27 15:37:00,84.3,69.4,29.88,WSW,258,5.0,7.0,61,0.00,,,0.00,Wunderground v.1.15,2013-05-27 20:37:00,
2013-05-27 15:43:00,85.3,69.8,29.88,SE,131,4.0,5.0,60,0.00,,,0.00,Wunderground v.1.15,2013-05-27 20:43:00,
2013-05-27 15:49:00,84.7,70.0,29.87,South,181,2.0,11.0,62,0.00,,,0.00,weatherlink.com 1.10,2013-05-27 20:49:00,
2013-05-27 15:54:00,85.0,71.0,29.87,South,180,4.0,10.0,63,0.00,,,0.00,Wunderground v.1.15,2013-05-27 20:54:00,
2013-05-27 16:00:00,85.5,70.0,29.86,East,87,4.0,4.0,60,0.00,,,0.00,Wunderground v.1.15,2013-05-27 21:00:00,
2013-05-27 16:06:00,85.4,70.0,29.86,SSW,199,3.0,9.0,60,0.00,,,0.00,weatherlink.com 1.10,2013-05-27 21:06:00,
2013-05-27 16:10:00,85.3,69.8,29.86,South,175,5.0,6.0,60,0.00,,,0.00,Wunderground v.1.15,2013-05-27 21:10:00,
2013-05-27 16:16:00,85.4,69.4,29.86,SSE,157,5.0,6.0,59,0.00,,,0.00,Wunderground v.1.15,2013-05-27 21:16:00,
2013-05-27 16:21:00,85.8,69.8,29.86,SSW,198,4.0,5.0,59,0.00,,,0.00,Wunderground v.1.15,2013-05-27 21:21:00,
2013-05-27 16:27:00,85.9,70.4,29.85,South,171,3.0,6.0,60,0.00,,,0.00,Wunderground v.1.15,2013-05-27 21:27:00,
2013-05-27 16:33:00,86.0,70.0,29.85,SSE,165,4.0,12.0,59,0.00,,,0.00,Wunderground v.1.15,2013-05-27 21:33:00,
2013-05-27 16:39:00,86.1,70.6,29.85,SW,214,4.0,12.0,60,0.00,,,0.00,Wunderground v.1.15,2013-05-27 21:39:00,
2013-05-27 16:45:00,86.5,70.0,29.85,SSE,161,4.0,8.0,58,0.00,,,0.00,Wunderground v.1.15,2013-05-27 21:45:00,
2013-05-27 16:51:00,86.9,70.3,29.85,SSE,157,4.0,5.0,58,0.00,,,0.00,Wunderground v.1.15,2013-05-27 21:51:00,
2013-05-27 16:57:00,87.0,69.9,29.84,SSE,164,4.0,8.0,57,0.00,,,0.00,Wunderground v.1.15,2013-05-27 21:57:00,
2013-05-27 17:02:00,86.3,70.3,29.84,South,171,4.0,6.0,59,0.00,,,0.00,Wunderground v.1.15,2013-05-27 22:02:00,
2013-05-27 17:08:00,86.5,70.0,29.84,SSE,147,4.0,8.0,58,0.00,,,0.00,Wunderground v.1.15,2013-05-27 22:08:00,
2013-05-27 17:14:00,86.5,70.5,29.83,SE,144,5.0,10.0,59,0.00,,,0.00,Wunderground v.1.15,2013-05-27 22:14:00,
2013-05-27 17:19:00,86.0,69.5,29.83,SSW,198,5.0,10.0,58,0.00,,,0.00,Wunderground v.1.15,2013-05-27 22:19:00,
2013-05-27 17:25:00,86.4,69.9,29.83,South,181,5.0,7.0,58,0.00,,,0.00,Wunderground v.1.15,2013-05-27 22:25:00,
2013-05-27 17:31:00,86.9,69.8,29.83,SE,125,4.0,6.0,57,0.00,,,0.00,Wunderground v.1.15,2013-05-27 22:31:00,
2013-05-27 17:36:00,87.4,69.8,29.82,SSE,161,5.0,9.0,56,0.00,,,0.00,Wunderground v.1.15,2013-05-27 22:36:00,
2013-05-27 17:42:00,87.7,69.5,29.82,SSE,165,4.0,10.0,55,0.00,,,0.00,Wunderground v.1.15,2013-05-27 22:42:00,
2013-05-27 17:48:00,87.8,68.5,29.82,SSW,194,5.0,10.0,53,0.00,,,0.00,Wunderground v.1.15,2013-05-27 22:48:00,
2013-05-27 17:54:00,87.4,68.7,29.81,South,176,6.0,6.0,54,0.00,,,0.00,Wunderground v.1.15,2013-05-27 22:54:00,
2013-05-27 17:59:00,87.2,69.1,29.81,South,169,5.0,9.0,55,0.00,,,0.00,Wunderground v.1.15,2013-05-27 22:59:00,
2013-05-27 18:04:00,87.0,69.4,29.81,SSE,154,4.0,5.0,56,0.00,,,0.00,Wunderground v.1.15,2013-05-27 23:04:00,
2013-05-27 18:10:00,87.1,69.5,29.81,South,182,4.0,10.0,56,0.00,,,0.00,Wunderground v.1.15,2013-05-27 23:10:00,
2013-05-27 18:16:00,87.5,69.3,29.80,South,171,5.0,10.0,55,0.00,,,0.00,Wunderground v.1.15,2013-05-27 23:16:00,
2013-05-27 18:22:00,87.7,69.5,29.80,SSW,194,5.0,5.0,55,0.00,,,0.00,Wunderground v.1.15,2013-05-27 23:22:00,
2013-05-27 18:27:00,87.9,68.6,29.80,SSW,192,5.0,6.0,53,0.00,,,0.00,Wunderground v.1.15,2013-05-27 23:27:00,
2013-05-27 18:33:00,87.3,68.6,29.79,SW,215,5.0,8.0,54,0.00,,,0.00,Wunderground v.1.15,2013-05-27 23:33:00,
2013-05-27 18:38:00,86.9,68.3,29.79,SSE,157,5.0,9.0,54,0.00,,,0.00,Wunderground v.1.15,2013-05-27 23:38:00,
2013-05-27 18:44:00,86.9,68.8,29.79,South,175,5.0,6.0,55,0.00,,,0.00,Wunderground v.1.15,2013-05-27 23:44:00,
2013-05-27 18:50:00,87.1,69.0,29.78,SSW,199,3.0,11.0,56,0.00,,,0.00,weatherlink.com 1.10,2013-05-27 23:50:00,
2013-05-27 18:56:00,86.9,68.3,29.78,SSE,167,5.0,11.0,54,0.00,,,0.00,Wunderground v.1.15,2013-05-27 23:56:00,
2013-05-27 19:01:00,86.4,68.3,29.78,SSE,165,6.0,8.0,55,0.00,,,0.00,Wunderground v.1.15,2013-05-28 00:01:00,
2013-05-27 19:07:00,86.1,68.6,29.77,SW,215,5.0,8.0,56,0.00,,,0.00,Wunderground v.1.15,2013-05-28 00:07:00,
2013-05-27 19:13:00,85.8,68.3,29.78,SE,144,5.0,7.0,56,0.00,,,0.00,Wunderground v.1.15,2013-05-28 00:13:00,
2013-05-27 19:19:00,85.5,68.0,29.78,South,171,5.0,11.0,56,0.00,,,0.00,Wunderground v.1.15,2013-05-28 00:19:00,
2013-05-27 19:24:00,85.2,68.2,29.78,South,181,5.0,7.0,57,0.00,,,0.00,Wunderground v.1.15,2013-05-28 00:24:00,
2013-05-27 19:29:00,84.8,68.4,29.78,SSW,192,4.0,7.0,58,0.00,,,0.00,Wunderground v.1.15,2013-05-28 00:29:00,
2013-05-27 19:35:00,84.4,68.0,29.79,SSE,163,5.0,12.0,58,0.00,,,0.00,Wunderground v.1.15,2013-05-28 00:35:00,
2013-05-27 19:41:00,84.2,68.3,29.79,SSW,194,5.0,7.0,59,0.00,,,0.00,Wunderground v.1.15,2013-05-28 00:41:00,
2013-05-27 19:47:00,84.0,68.6,29.79,South,182,5.0,7.0,60,0.00,,,0.00,Wunderground v.1.15,2013-05-28 00:47:00,
2013-05-27 19:53:00,83.9,68.5,29.79,SSE,163,4.0,5.0,60,0.00,,,0.00,Wunderground v.1.15,2013-05-28 00:53:00,
2013-05-27 19:59:00,83.5,68.2,29.79,South,180,5.0,16.0,60,0.00,,,0.00,Wunderground v.1.15,2013-05-28 00:59:00,
2013-05-27 20:04:00,83.3,68.0,29.80,SE,136,6.0,9.0,60,0.00,,,0.00,Wunderground v.1.15,2013-05-28 01:04:00,
2013-05-27 20:09:00,83.1,68.3,29.80,SSW,202,5.0,9.0,61,0.00,,,0.00,Wunderground v.1.15,2013-05-28 01:09:00,
2013-05-27 20:15:00,82.9,68.5,29.80,SSE,163,4.0,9.0,62,0.00,,,0.00,Wunderground v.1.15,2013-05-28 01:15:00,
2013-05-27 20:21:00,82.6,68.0,29.80,SE,135,5.0,14.0,62,0.00,,,0.00,weatherlink.com 1.10,2013-05-28 01:21:00,
2013-05-27 20:26:00,82.4,68.1,29.80,South,182,4.0,10.0,62,0.00,,,0.00,Wunderground v.1.15,2013-05-28 01:26:00,
2013-05-27 20:32:00,82.3,68.4,29.81,South,169,4.0,6.0,63,0.00,,,0.00,Wunderground v.1.15,2013-05-28 01:32:00,
2013-05-27 20:37:00,82.1,68.3,29.80,SSE,153,4.0,6.0,63,0.00,,,0.00,Wunderground v.1.15,2013-05-28 01:37:00,
2013-05-27 20:42:00,81.8,68.4,29.80,SSE,161,4.0,8.0,64,0.00,,,0.00,Wunderground v.1.15,2013-05-28 01:42:00,
2013-05-27 20:47:00,81.5,68.6,29.80,SSE,162,3.0,8.0,65,0.00,,,0.00,Wunderground v.1.15,2013-05-28 01:47:00,
2013-05-27 20:53:00,81.1,68.2,29.80,ESE,118,4.0,7.0,65,0.00,,,0.00,Wunderground v.1.15,2013-05-28 01:53:00,
2013-05-27 20:58:00,81.0,68.6,29.80,SSE,150,5.0,15.0,66,0.00,,,0.00,Wunderground v.1.15,2013-05-28 01:58:00,
2013-05-27 21:04:00,80.8,68.8,29.80,SSE,148,5.0,8.0,67,0.00,,,0.00,Wunderground v.1.15,2013-05-28 02:04:00,
2013-05-27 21:09:00,80.7,68.7,29.80,SSE,161,5.0,10.0,67,0.00,,,0.00,Wunderground v.1.15,2013-05-28 02:09:00,
2013-05-27 21:15:00,80.5,68.5,29.80,SSE,160,5.0,9.0,67,0.00,,,0.00,Wunderground v.1.15,2013-05-28 02:15:00,
2013-05-27 21:21:00,80.4,69.0,29.80,South,173,8.0,13.0,68,0.00,,,0.00,weatherlink.com 1.10,2013-05-28 02:21:00,
2013-05-27 21:26:00,80.2,68.7,29.80,SSE,164,5.0,7.0,68,0.00,,,0.00,Wunderground v.1.15,2013-05-28 02:26:00,
2013-05-27 21:32:00,80.2,68.7,29.80,ESE,104,5.0,8.0,68,0.00,,,0.00,Wunderground v.1.15,2013-05-28 02:32:00,
2013-05-27 21:38:00,80.2,69.0,29.81,ESE,120,2.0,9.0,68,0.00,,,0.00,weatherlink.com 1.10,2013-05-28 02:38:00,
2013-05-27 21:43:00,80.1,68.6,29.81,SSE,161,4.0,6.0,68,0.00,,,0.00,Wunderground v.1.15,2013-05-28 02:43:00,
2013-05-27 21:48:00,79.9,68.8,29.81,SE,140,5.0,8.0,69,0.00,,,0.00,Wunderground v.1.15,2013-05-28 02:48:00,
2013-05-27 21:53:00,79.8,68.7,29.81,SSW,192,5.0,7.0,69,0.00,,,0.00,Wunderground v.1.15,2013-05-28 02:53:00,
2013-05-27 21:58:00,79.8,68.7,29.81,SSE,159,5.0,12.0,69,0.00,,,0.00,Wunderground v.1.15,2013-05-28 02:58:00,
2013-05-27 22:03:00,79.9,68.8,29.82,South,184,5.0,8.0,69,0.00,,,0.00,Wunderground v.1.15,2013-05-28 03:03:00,
2013-05-27 22:09:00,79.8,68.7,29.82,South,180,5.0,12.0,69,0.00,,,0.00,Wunderground v.1.15,2013-05-28 03:09:00,
2013-05-27 22:14:00,79.8,68.7,29.82,SSE,150,5.0,9.0,69,0.00,,,0.00,Wunderground v.1.15,2013-05-28 03:14:00,
2013-05-27 22:19:00,79.8,68.7,29.82,SE,139,6.0,10.0,69,0.00,,,0.00,Wunderground v.1.15,2013-05-28 03:19:00,
2013-05-27 22:25:00,79.8,68.3,29.83,South,175,6.0,8.0,68,0.00,,,0.00,Wunderground v.1.15,2013-05-28 03:25:00,
2013-05-27 22:31:00,80.1,68.6,29.83,South,181,6.0,8.0,68,0.00,,,0.00,Wunderground v.1.15,2013-05-28 03:31:00,
2013-05-27 22:36:00,80.1,68.6,29.83,South,186,5.0,8.0,68,0.00,,,0.00,Wunderground v.1.15,2013-05-28 03:36:00,
2013-05-27 22:42:00,80.0,68.5,29.83,South,181,6.0,7.0,68,0.00,,,0.00,Wunderground v.1.15,2013-05-28 03:42:00,
2013-05-27 22:48:00,79.9,68.4,29.83,SSE,150,6.0,13.0,68,0.00,,,0.00,Wunderground v.1.15,2013-05-28 03:48:00,
2013-05-27 22:54:00,79.7,68.2,29.83,South,190,5.0,8.0,68,0.00,,,0.00,Wunderground v.1.15,2013-05-28 03:54:00,
2013-05-27 23:00:00,79.6,68.5,29.83,SSE,164,6.0,6.0,69,0.00,,,0.00,Wunderground v.1.15,2013-05-28 04:00:00,
2013-05-27 23:01:00,79.6,68.5,29.83,SSE,164,5.0,6.0,69,0.00,,,0.00,Wunderground v.1.15,2013-05-28 04:01:00,
2013-05-27 23:02:00,79.6,68.5,29.84,SSE,168,5.0,6.0,69,0.00,,,0.00,Wunderground v.1.15,2013-05-28 04:02:00,
2013-05-27 23:03:00,79.6,68.5,29.84,ESE,123,5.0,7.0,69,0.00,,,0.00,Wunderground v.1.15,2013-05-28 04:03:00,
2013-05-27 23:04:00,79.6,68.5,29.84,SSE,155,5.0,7.0,69,0.00,,,0.00,Wunderground v.1.15,2013-05-28 04:04:00,
2013-05-27 23:06:00,79.6,68.5,29.84,SSE,161,5.0,7.0,69,0.00,,,0.00,Wunderground v.1.15,2013-05-28 04:06:00,
2013-05-27 23:11:00,79.4,68.3,29.84,SSE,157,6.0,8.0,69,0.00,,,0.00,Wunderground v.1.15,2013-05-28 04:11:00,
2013-05-27 23:16:00,79.2,68.6,29.84,WSW,240,6.0,10.0,70,0.00,,,0.00,Wunderground v.1.15,2013-05-28 04:16:00,
2013-05-27 23:22:00,79.1,68.5,29.84,SSE,162,6.0,11.0,70,0.00,,,0.00,Wunderground v.1.15,2013-05-28 04:22:00,
2013-05-27 23:28:00,79.1,68.5,29.83,SE,130,6.0,11.0,70,0.00,,,0.00,Wunderground v.1.15,2013-05-28 04:28:00,
2013-05-27 23:33:00,79.1,68.9,29.83,South,188,6.0,9.0,71,0.00,,,0.00,Wunderground v.1.15,2013-05-28 04:33:00,
2013-05-27 23:39:00,79.0,69.2,29.83,SE,146,6.0,9.0,72,0.00,,,0.00,Wunderground v.1.15,2013-05-28 04:39:00,
2013-05-27 23:45:00,78.8,69.0,29.83,South,174,6.0,7.0,72,0.00,,,0.00,Wunderground v.1.15,2013-05-28 04:45:00,
2013-05-27 23:51:00,78.5,69.0,29.83,SSE,155,7.0,13.0,73,0.00,,,0.00,weatherlink.com 1.10,2013-05-28 04:51:00,
2013-05-27 23:56:00,78.4,69.4,29.83,SSW,211,6.0,15.0,74,0.00,,,0.00,Wunderground v.1.15,2013-05-28 04:56:00,